Regional Weather Roundup
Issued by NWS

Home | Current Version | Previous Version | Graphics & Text | Print | Product List | Glossary Off
Versions: 1 2 3 4 5 6 7 8 9 10 11 12 13 14 15 16 17 18 19 20 21 22 23 24 25 26 27 28 29 30 31 32 33 34 35 36 37 38 39 40 41 42 43 44 45 46 47 48 49 50

000
ASUS45 KBOU 201307
RWRCO

WEATHER ROUNDUP FOR COLORADO
NATIONAL WEATHER SERVICE DENVER/BOULDER CO
700 AM MDT WED AUG 20 2014

NOTE: "FAIR" INDICATES FEW OR NO CLOUDS BELOW 12000 FEET WITH NO
SIGNIFICANT WEATHER AND/OR OBSTRUCTIONS TO VISIBILITY.

COZ001>005-013-030-031-201400-
...NORTHWEST COLORADO...

CITY           SKY/WX    TMP DP  RH WIND       PRES   REMARKS
CRAIG          CLOUDY    57  54  89 CALM      30.06R
HAYDEN         CLOUDY    55  50  82 SE3       30.09R
MEEKER         CLOUDY    59  53  80 SW6       30.08R
MOUNT WERNER   NOT AVBL
STEAMBOAT SPGS CLOUDY    53  53  97 CALM      30.10R
WALDEN         CLOUDY    52  46  82 S10       30.14R
$$

COZ006>008-011-201400-
...WEST CENTRAL VALLEYS...

CITY           SKY/WX    TMP DP  RH WIND       PRES   REMARKS
GRAND JUNCTION PTCLDY    60  59  96 SE3       30.02R
MONTROSE       MOCLDY    60  58  92 CALM      30.09R
EAGLE          CLOUDY    57  57 100 CALM      30.13R
RIFLE          MOCLDY    60  58  92 CALM      30.05R
DELTA          RAIN      62  58  87 N5        30.05R
NUCLA          PTCLDY    61  54  77 E3        30.14R
$$

COZ017>023-064>068-201400-
...SOUTHWEST COLORADO...

CITY           SKY/WX    TMP DP  RH WIND       PRES   REMARKS
DURANGO        PTCLDY    57  52  83 NE6       30.15R
CORTEZ         MOCLDY    55  54  96 E5        30.13R
PAGOSA SPRINGS DRIZZLE   55  54  94 CALM      30.21R
TELLURIDE      PTCLDY    52  52 100 CALM      30.27R
WOLF CREEK PAS NOT AVBL
$$

COZ009-010-012-014-032>034-037-058>063-201400-
...CENTRAL COLORADO...

CITY           SKY/WX    TMP DP  RH WIND       PRES   REMARKS
ASPEN          LGT RAIN  54  52  93 CALM      30.17R
BUENA VISTA    CLOUDY    53  49  86 W3        30.15R
COPPER MTN     HAZE      45  41  87 SW5       30.41R VSB<1/4
BERTHOUD PASS  FOG       36  36 100 NW15G23   30.42R VSB<1/4
COTTONWOOD PAS MOCLDY    55  43  62 CALM      30.27R
GUNNISON       MOCLDY    55  48  76 CALM      30.19R
KREMMLING      MOCLDY    54  50  87 CALM      30.15R
LEADVILLE      LGT RAIN  47  44  90 N5        30.26R
MONARCH PASS   FOG       41  41 100 SW18      30.50S VSB<1/4
SALIDA         MOCLDY    60  47  61 SW13G20   30.19R
SUNLIGHT       FOG       46  46 100 CALM      30.34R VSB 1/4
WILKERSON PASS NOT AVBL
$$

COZ069>075-201400-
...SAN LUIS VALLEY/SANGRE DE CRISTO MOUNTAINS...

CITY           SKY/WX    TMP DP  RH WIND       PRES   REMARKS
ALAMOSA        MOCLDY    57  47  69 CALM      30.15R
LA VETA PASS   CLOUDY    52  41  66 S13G24    30.27R
SAGUACHE       MOCLDY    54  45  71 NW8       30.17S
$$

COZ035-036-038>040-201400-
...NORTHERN COLORADO FRONT RANGE...

CITY           SKY/WX    TMP DP  RH WIND       PRES   REMARKS
DENVER INTL AP MOCLDY    64  54  69 W8        29.94R
DMNS CITY PARK   N/A     61  54  77 S2        29.94R
AURORA         MOCLDY    61  53  76 W8        29.97R
FRONT RANGE AP MOCLDY    63  55  77 W7        29.95S
ERIE MUNI ARPT PTCLDY    59  53  79 CALM      29.93R
BOULDER MUN AP PTCLDY    63  50  63 SW6       29.93S
CENTENNIAL     PTCLDY    59  49  69 W8        29.97R
BROOMFIELD     MOCLDY    64  48  55 NW6       29.96R
FORT COLLINS   PTCLDY    61  54  77 CALM      29.92S
LONGMONT       PTCLDY    62  53  72 SW3       29.93S HAZE
$$

COZ041-046-047-076>085-087-088-201400-
...PIKES PEAK/PALMER DIVIDE AND SOUTHERN FOOTHILLS...

CITY           SKY/WX    TMP DP  RH WIND       PRES   REMARKS
COLO. SPRINGS  MOCLDY    62  49  62 E3        30.00R
A. F. ACADEMY  PTCLDY    58  47  66 NW6       30.02R
ELLICOTT       MOCLDY    60  50  69 N5        29.98R
FALCON         MOCLDY    59  47  63 NW3       30.04S
FORT CARSON    CLOUDY    59  52  77 N2        29.97R
LIMON          CLOUDY    62  51  67 CALM      29.93R
MONUMENT HILL  MOCLDY    59  46  63 SW7       30.05R
TRINIDAD       MOCLDY    66  47  50 SW8       29.98R
$$

COZ042>045-048>051-090-091-201400-
...NORTHEAST COLORADO...

CITY           SKY/WX    TMP DP  RH WIND       PRES   REMARKS
GREELEY ARPT   MOCLDY    61  50  67 NW3       29.90R
AKRON          CLOUDY    66  56  70 W9        29.89R
BURLINGTON     MOCLDY    72  58  61 S8        29.84S
WRAY             N/A     64  64 100 NW3       29.81S
STERLING       CLOUDY    64  64 100 W3        29.84R
HOLYOKE        NOT AVBL
FORT MORGAN    CLOUDY    61  58  91 CALM      29.89R
$$

COZ086-089-092>099-201400-
...SOUTHEAST COLORADO...

CITY           SKY/WX    TMP DP  RH WIND       PRES   REMARKS
PUEBLO         MOCLDY    65  53  65 CALM      29.90R
LA JUNTA       MOCLDY    72  52  49 SW12      29.86R
LAMAR          PTCLDY    70  59  68 CALM      29.82R
SPRINGFIELD      N/A     68  59  73 SW9       29.89S
$$


USA.gov is the U.S. government's official web portal to all federal, state and local government web resources and services.